Regional Weather Roundup
Issued by NWS Wakefield, VA

Home | Current Version | Previous Version | Text Only | Print | Product List | Glossary Off
Versions: 1 2 3 4 5 6 7 8 9 10 11 12 13 14 15 16 17 18 19 20 21 22 23 24 25 26 27 28 29 30 31 32 33 34 35 36 37 38 39 40 41 42 43 44 45 46 47 48 49 50

000
ASUS41 KAKQ 041815
RWRAKQ

REGIONAL WEATHER ROUNDUP
NATIONAL WEATHER SERVICE WAKEFIELD VA
200 PM EDT SAT JUL 04 2015

Note: "fair" indicates few or no clouds below 12,000 feet with no
significant weather and/or obstructions to visibility. * = Denotes
station may not report precipitation (e.g., rain,snow,etc.),
thunder or fog.

VAZ042-051-052>054-056-041900-
NORTHERN VIRGINIA

CITY           SKY/WX    TMP DP  RH WIND       PRES   REMARKS
WASH NATIONAL  CLOUDY    80  70  71 SE3       29.91F
DULLES         PTSUNNY   79  69  71 S6        29.91S
FORT BELVOIR   CLOUDY    79  70  73 SW5       29.91S
QUANTICO       NOT AVBL
FREDERICKSBRG* PTSUNNY   83  71  65 SW7       29.91S
STAFFORD*      CLOUDY    78  69  74 CALM      29.95S
WARRENTON      PTSUNNY   83  73  71 W6        29.90F
CULPEPER*      MOSUNNY   81  70  69 SW5       29.91F
MANASSAS*      PTSUNNY   82  72  69 SW8         N/A
LEESBURG*      LGT RAIN  79  72  78 S10       29.92S
WINCHESTER     PTSUNNY   82  70  65 W3        29.91S
FRONT ROYAL*   MOCLDY    79  70  73 W5        29.91S
LURAY*         LGT RAIN  77  72  83 S3        29.93S
$$

VAZ048-049-060>072-079>083-041900-
CENTRAL AND SOUTH CENTRAL VIRGINIA

CITY           SKY/WX    TMP DP  RH WIND       PRES   REMARKS
RICHMOND       PTSUNNY   83  70  64 SW6       29.92S
CHESTERFIELD*  NOT AVBL
PETERSBURG*    PTSUNNY   83  76  77 SW9       29.93S
HANOVER        PTSUNNY   81  70  69 SW8       29.94S
TAPPAHANNOCK*  PTSUNNY   83  68  59 SW5       29.92S
QUINTON*       NOT AVBL
CHARLOTTSVILLE MOSUNNY   82  69  64 VRB3      29.91F
GORDONSVILLE*  MOCLDY    81  70  69 SW5       29.91F
ORANGE*        CLOUDY    82  70  65 S6        29.93S
LOUISA*        PTSUNNY   81  70  69 CALM      29.92S
BUMPASS*       CLOUDY    80  70  71 W3        29.92S
FARMVILLE*     PTSUNNY   84  69  60 SW9       29.92F
CREWE*         FAIR      82  69  64 W8        29.94S
FORT PICKETT*  FAIR      81  70  68 W9        29.94F
CHASE CITY*    FAIR      83  74  73 W6        29.96S
CLARKSVILLE*   FAIR      82  70  65 SW8       29.95F
SOUTH HILL*    CLOUDY    81  71  71 SW7       30.01S
LAWRENCEVILLE* NOT AVBL
EMPORIA*         N/A     82  70  65 SW9       29.95F
$$

VAZ088>098-041900-
SOUTHEAST VIRGINIA

CITY           SKY/WX    TMP DP  RH WIND       PRES   REMARKS
NORFOLK        MOSUNNY   85  70  60 W7        29.91F
VIRGINIA BEACH MOSUNNY   88  72  58 SW10      29.91S
NORFOLK NAVAL  PTSUNNY   83  70  64 W14       29.93F
WEST POINT*    PTSUNNY   83  69  62 W9        29.93S
SALUDA*        CLOUDY    81  72  74 SW5       29.91R
NEWPORT NEWS   PTSUNNY   84  71  65 W10       29.92S
LANGLEY AFB    MOSUNNY   83  71  67 SW14G22   29.91R
FORT EUSTIS    MOSUNNY   83  76  79 VRB5      29.90S
WILLIAMSBURG*  PTSUNNY   86  73  66 W10       29.93F
HR EXEC AP*    MOCLDY    84  72  65 W13G18    29.94F
FRANKLIN*      PTSUNNY   84  70  63 W10       29.93F
WAKEFIELD      PTSUNNY   85  72  65 SW8       29.92F
$$

VAZ020-022-025-037-045-041900-
WEST CENTRAL AND SOUTHWEST VIRGINIA

CITY           SKY/WX    TMP DP  RH WIND       PRES   REMARKS
STAUNTON*      PTSUNNY   83  67  58 SW9       29.96S
WAYNESBORO*    MOCLDY    79  67  66 NW8       29.96S
HOT SPRINGS VA CLOUDY    68  68 100 W13       30.08R
LYNCHBURG      PTSUNNY   81  69  67 S13       29.97S
DANVILLE       PTSUNNY   82  68  62 W10       29.98R
SOUTH BOSTON*  FAIR      82  70  67 MISG      29.96S
MARTINSVILLE   PTSUNNY   85  68  56 SW7       30.00F
ROANOKE        CLOUDY    81  65  58 W12       29.99R
BLACKSBURG     PTSUNNY   78  68  71 W6        30.06S
DUBLIN*        PTSUNNY   79  68  67 W6        30.05F
MARION*        CLOUDY    75  66  75 W12       30.10S
HILLSVILLE*    CLOUDY    73  65  76 SW8       30.08S
RICHLANDS*     MOCLDY    72  67  84 W7        30.09R
WISE*          CLOUDY    73  68  83 SW8       30.10S
ABINGDON*      PTSUNNY   74  69  84 W9        30.07S
$$

MDZ021>025-VAZ099-100-041900-
SOUTHERN MARYLAND AND THE DELMARVA PENINSULA

CITY           SKY/WX    TMP DP  RH WIND       PRES   REMARKS
PATUXENT RIVER PTSUNNY   78  70  76 NE8       29.90S
BAY BRIDGE APT   N/A     75  68  78 NE3       29.92R
LEONARDTOWN    CLOUDY    79  68  69 CALM      29.92S
DOVER          PTSUNNY   76  66  72 E1        29.91S
GEORGETOWN     CLOUDY    78  66  66 NE10      29.92R
EASTON         NOT AVBL
CAMBRIDGE      PTSUNNY   81  64  57 N5        29.90S
SALISBURY      LGT RAIN  78  71  79 NE5       29.90S
OCEAN CITY     MOSUNNY   78  69  73 NE13      29.91R
WALLOPS ISLAND PTSUNNY   82  71  69 NW7       29.90S
ACCOMACK*      PTSUNNY   79  73  83 W7        29.91S
$$

NCZ012>017-030>032-041900-
NORTH CENTRAL AND EASTERN NORTH CAROLINA

CITY           SKY/WX    TMP DP  RH WIND       PRES   REMARKS
ROANOKE RAPIDS MOCLDY    86  70  58 SW15      29.95F
RALEIGH        PTSUNNY   81  68  64 SW15      29.99S THUNDER
ELIZABETH CITY MOSUNNY   86  71  60 SW15G23   29.93F
AHOSKIE*       PTSUNNY  N/A N/A N/A W3        29.95S
EDENTON*         N/A     87  71  58 W10       29.95F
CURRITUCK*     PTSUNNY   87  67  52 W10G20    29.94S
KILL DEVIL HLS MOSUNNY   91  70  50 W13G20    29.94S HX  96
MANTEO         PTSUNNY   87  71  59 W12G22    29.95S
CAPE HATTERAS  MOSUNNY   82  71  69 SW16G28   29.99S
TARBORO*       RAIN      80  72  75 S9G22     29.97S
GOLDSBORO      MOSUNNY   88  71  55 SW17G29   29.96S
WASHINGTON     MOSUNNY   85  71  62 SW15G21   29.96F
GREENVILLE     MOSUNNY   84  68  58 NW20G30   29.99R THUNDER
NEW BERN       PTSUNNY   88  69  53 SW12G25   30.00S
WILMINGTON     SUNNY     91  69  48 W16       30.03S HX  96
$$

VAZ048-041900-
ELSEWHERE

CITY           SKY/WX    TMP DP  RH WIND       PRES   REMARKS
HARRISBURG PA  LGT RAIN  69  63  81 SE6       29.94R
BALTIMORE      CLOUDY    74  68  81 E6        29.92S
ANNAPOLIS      CLOUDY    76  68  76 E5        29.92R
ANDREWS AFB    CLOUDY    77  73  88 VRB1      29.91F
PHILADELPHIA   LGT RAIN  74  65  73 NE9       29.93F
HENDERSON NC   MOSUNNY   83  66  56 W6        29.97F
GREENSBORO     PTSUNNY   82  67  60 W13       30.00F
ROCKY MOUNT    MOSUNNY   82  75  79 SW10      29.97R
$$

VAZ100-041900-
MARINE

STATION/POSITION TIME  TEMP    WIND        PRES    WAVE   SWELL
                       AIR SEA DIR/SP/G            HT/PER HT/PER
                 (UTC) (F)     (DEG/KT/KT) (MB)    (FT/S) (FT/S)
BRANDYWINE LGT   1700   73 72   70/  9/ 11 1013.0S
CAPE MAY NJ      1700   75 75   60/  8/ 11 1012.5R
LEWES DE         1700   73 72   50/  7/  8 1012.7R
15NM E FENWICK I 1750   72 73              1012.1R   4/ 5
OCEAN-CITY-INLET 1700   73 73   20/  7/  9 1012.4R
WACHAPREAGUE VA  1700   81 80  280/  2/  8 1012.7R
THOMAS POINT MD  1800   73 76  360/  7/  8 1013.5R
GOOSES REEF MD   1800   76 79   30/  8/  8 1013.8S
COVE POINT MD    1700   75      20/  7/  8 1013.3S
SOLOMONS ISLAND  1700      79                N/A
BISHOPS HEAD MD  1700   78     290/  9/ 10 1012.4R
PINEY POINT MD   1700          340/  7/  8   N/A
CAMBRIDGE MD     1700   77 78  340/  5/  7 1012.4F
LEWISETTA VA     1700   78 80   10/  5/  9 1012.3S
RAPPAHANNOCK LGT 1700          250/  9/ 12 1013.3R
STINGRAY PT      1800   80 80  240/ 10/ 10 1012.8R   1
YORK RVR RNG VA  1700   79     270/  8/  9 1012.4F
YORKTOWN VA      1706   79     250/  9/ 12 1012.7F
JAMESTOWN VA     1800   81 82  250/  8/ 12   N/A
DOMINION TERM VA 1700   80     280/ 12/ 14 1013.1F
KIPTOPEKE VA     1700      82  290/  7/  8   N/A
CHES BAY BRIDGE  1700   78 76  260/ 13/ 15 1012.8S
CAPE HENRY VA    1700   81     280/ 12/ 16   N/A
CHESAPEAKE LGHT  1700   78     290/ 10/ 11 1013.9S
WILLOUBY STN VA  1700   79     260/ 11/ 13 1014.1R
CAPE HENRY BUOY  1728      77                N/A     3/14   2/14
1ST LANDING BUOY 1800      78              1012.9F
CAPE CHARLES BUO 1726      76                N/A     3/ 8   2/ 8
OFFSHORE WE BUOY 1711      78                N/A     4/ 7   3/ 7
64NM E OF VA BCH 1750   77 76  240/ 10/ 12 1013.4R   6/ 8   5/ 8
DUCK PIER NC     1700   82 68  250/ 15/ 19   N/A
44100 DUCK FRF   1724      75                N/A     3/ 7
44056 DUCK FRF   1711      76                N/A     2/15
OREGON INLET NC  1700   83 81  220/ 14/ 17 1014.2F
HATTERAS NC      1700   83 77  210/ 12/ 18 1015.2F
DIAMOND SHLS NC  1750   81 82  230/ 25/ 31 1015.3F   7/ 7   2/14
CAPE LOOKOUT NC  1800   83     230/ 15/ 21 1016.4F
$$



USA.gov is the U.S. government's official web portal to all federal, state and local government web resources and services.